[[{"header":{"parameterUnit":"m.s-1","parameterCategory":1,"la1":30.2991,"la2":30.254,"lo1":-89.0895,"lo2":-89.0444,"dy":0.0017,"dx":0.0017,"nx":28,"ny":28,"refTime":"2025-12-14T03:00:00:Z","depth":0,"parameterNumber":2,"parameterNumberName":"U-component_of_WINDS"},"data":[0,0,0,0,0,0,0,0,0,0,0,0,0,0,0,0,0,0,0,0,0,0,0,0,0,0,0,0,0,0,0,0,0,0,0,0,0,0,0,0,0,0,0,0,0,0,0,0,0,0,0,0,0,0,0,0,0,0,-1.4936,-1.4936,0,-1.4971,-1.4972,-1.4972,-1.4944,-1.4943,-1.4942,-1.494,-1.4978,-1.498,-1.4982,0,0,0,0,0,0,0,0,0,0,0,0,0,-1.4843,-1.4845,-1.4936,-1.4936,-1.4937,-1.4971,-1.4972,-1.4972,-1.4944,-1.4943,-1.4941,-1.494,-1.4977,-1.498,-1.4983,0,0,0,0,0,0,0,0,0,0,0,0,0,-1.4882,-1.4846,-1.4936,-1.4927,-1.4926,-1.4971,-1.4972,-1.4972,-1.4944,-1.4943,-1.4941,-1.4939,-1.4977,-1.498,-1.4983,-1.5039,0,0,-1.4993,-1.4994,0,0,0,0,0,0,0,0,-1.488,-1.4885,-1.4928,-1.4927,-1.4927,-1.4951,-1.4953,-1.4995,-1.4945,-1.4938,-1.494,-1.4938,-1.4971,-1.4974,-1.4985,-1.5041,-1.5042,-1.4993,-1.4995,-1.4996,-1.4997,0,0,0,0,0,0,0,-1.4877,-1.4884,-1.495,-1.4928,-1.4928,-1.4921,-1.4924,-1.4961,-1.4964,-1.4938,-1.4936,-1.4941,-1.497,-1.4982,-1.4986,-1.5043,-1.4993,-1.4996,-1.4998,-1.4999,-1.5145,-1.5147,0,0,0,0,0,0,-1.4875,-1.4881,-1.4949,-1.4951,-1.4898,-1.4924,-1.4928,-1.4945,-1.4963,-1.4964,-1.4942,-1.4939,-1.4977,-1.4982,-1.4987,-1.5053,-1.4996,-1.4999,-1.5001,-1.5143,-1.5145,-1.5148,0,0,0,0,0,0,-1.4873,-1.4881,-1.4947,-1.4916,-1.4923,-1.4928,-1.4947,-1.4947,-1.4959,-1.4967,-1.4967,-1.4954,-1.4976,-1.4982,-1.5026,-1.5054,-1.5001,-1.5004,-1.5141,-1.5144,-1.5147,-1.5187,0,0,0,0,0,0,-1.4871,-1.4881,-1.4902,-1.4916,-1.4925,-1.4986,-1.4949,-1.4949,-1.4964,-1.4961,-1.4977,-1.4978,-1.4975,-1.5021,-1.5029,-1.5058,-1.5006,-1.5138,-1.5142,-1.5146,-1.5183,-1.5191,-1.5198,0,0,0,0,0,-1.4868,-1.4913,-1.4904,-1.4912,-1.4952,-1.4987,-1.4993,-1.4988,-1.4967,-1.4988,-1.4993,-1.4978,-1.505,-1.5026,-1.5034,-1.5065,-1.5136,-1.5141,-1.5145,-1.518,-1.519,-1.5198,0,0,0,0,0,0,-1.4903,-1.4915,-1.4904,-1.4955,-1.4971,-1.4983,-1.501,-1.4998,-1.502,-1.5016,-1.5009,-1.5013,-1.5058,-1.5066,-1.5039,-1.5119,-1.509,-1.5096,-1.5113,-1.5122,-1.5129,-1.5127,-1.5009,0,0,0,0,0,-1.4916,-1.4944,-1.4953,-1.4997,-1.5005,-1.5006,-1.5021,-1.5016,-1.5031,-1.5038,-1.5046,-1.5062,-1.5088,-1.5105,-1.513,-1.5184,-1.5187,-1.5208,-1.5216,-1.5222,-1.5228,-1.5256,-1.5266,-1.5162,-1.5162,-1.5162,0,0,-1.4945,-1.4955,-1.4973,-1.5004,-1.5015,-1.5044,-1.5012,-1.5044,-1.5065,-1.5043,-1.5084,-1.5091,-1.5108,-1.5157,-1.5179,-1.5164,-1.5257,-1.5227,-1.5232,-1.5235,-1.5262,-1.5272,-1.528,-1.5165,-1.5165,-1.5164,0,0,-1.5012,-1.5022,-1.506,-1.5071,-1.5088,-1.5088,-1.5097,-1.5111,-1.5114,-1.5155,-1.5139,-1.5164,-1.5209,-1.5222,-1.5234,-1.5304,-1.5292,-1.5312,-1.5351,-1.5379,-1.5387,-1.5395,-1.542,-1.5429,-1.5318,-1.5318,-1.5318,0,-1.5046,-1.5089,-1.5081,-1.5114,-1.5128,-1.5108,-1.5146,-1.5158,-1.5182,-1.5192,-1.5175,-1.5231,-1.5241,-1.5293,-1.5309,-1.532,-1.533,-1.5311,-1.5387,-1.5394,-1.54,-1.5425,-1.5434,-1.5321,-1.532,-1.532,-1.532,0,-1.5129,-1.5159,-1.5187,-1.5211,-1.5228,-1.5263,-1.5261,-1.5279,-1.5272,-1.5274,-1.5316,-1.5327,-1.5353,-1.5364,-1.5358,-1.5415,-1.5405,-1.5387,-1.5358,-1.5413,-1.5436,-1.5445,-1.5324,-1.5323,-1.5323,-1.5322,0,0,-1.5222,-1.5239,-1.525,-1.526,-1.5276,-1.5299,-1.5333,-1.5358,-1.5373,-1.539,-1.5419,-1.5456,-1.544,-1.5454,-1.5448,-1.5473,-1.5528,-1.5452,-1.5452,-1.5466,-1.5591,-1.5605,-1.5616,-1.5518,-1.552,-1.5522,-1.559,0,-1.529,-1.5349,-1.5343,-1.5399,-1.5427,-1.5407,-1.5437,-1.545,-1.5452,-1.5475,-1.5478,-1.5505,-1.5481,-1.5489,-1.5512,-1.5516,-1.5553,-1.5511,-1.5546,-1.5547,-1.5543,-1.5627,-1.5643,-1.5707,-1.5599,-1.56,-1.5601,0,-1.5378,-1.5397,-1.5457,-1.5468,-1.5479,-1.5506,-1.5528,-1.555,-1.5564,-1.5564,-1.5579,-1.5569,-1.5603,-1.5571,-1.5618,-1.559,-1.5603,-1.5607,-1.5609,-1.5613,-1.5578,-1.5635,-1.5727,-1.5737,-1.5615,-1.5614,-1.5613,0,-1.544,-1.5481,-1.5521,-1.553,-1.5545,-1.5564,-1.5571,-1.5583,-1.5598,-1.5617,-1.5626,-1.5649,-1.5662,-1.5679,-1.5675,-1.5653,-1.5723,-1.5691,-1.5724,-1.5724,-1.5741,-1.574,-1.5838,-1.5748,-1.5748,-1.5748,-1.5748,0,-1.5518,-1.5555,-1.5549,-1.5575,-1.5615,-1.5607,-1.5647,-1.5652,-1.5662,-1.5688,-1.5672,-1.5696,-1.5689,-1.5713,-1.571,-1.5749,-1.5755,-1.5756,-1.5755,-1.5758,-1.5758,-1.5767,-1.5763,-1.575,-1.575,-1.5749,-1.5749,0,-1.5595,-1.5593,-1.5636,-1.5645,-1.5648,-1.5678,-1.5685,-1.5709,-1.5709,-1.5741,-1.5749,-1.5749,-1.5776,-1.5773,-1.5804,-1.5801,-1.585,-1.5843,-1.5846,-1.5844,-1.5878,-1.5875,-1.5986,-1.6,-1.59,-1.5901,-1.5902,0,-1.5646,-1.5674,-1.5685,-1.5701,-1.5709,-1.5735,-1.5749,-1.5742,-1.5758,-1.5775,-1.5797,-1.5822,-1.5842,-1.5886,-1.5889,-1.5912,-1.5906,-1.5943,-1.591,-1.5912,-1.5907,-1.5906,-1.5909,-1.595,-1.5952,-1.5952,-1.5953,0,-1.5735,-1.5732,-1.5754,-1.5776,-1.5794,-1.5811,-1.5826,-1.5839,-1.5833,-1.5852,-1.5879,-1.5894,-1.5925,-1.595,-1.5971,-1.5978,-1.5965,-1.5963,-1.5972,-1.5976,-1.5977,-1.5978,-1.5865,-1.5961,-1.5961,-1.596,-1.5959,-1.5959,-1.5801,-1.5825,-1.5837,-1.5862,-1.5872,-1.5886,-1.5908,-1.591,-1.5933,-1.5957,-1.595,-1.5981,-1.5993,-1.6021,-1.6029,-1.6053,-1.604,-1.6053,-1.6056,-1.606,-1.6064,-1.5972,-1.6057,-1.6057,-1.6056,-1.6056,-1.6056,0,-1.5891,-1.5897,-1.592,-1.5941,-1.596,-1.5945,-1.596,-1.5977,-1.6004,-1.6017,-1.6036,-1.6067,-1.6091,-1.6095,-1.6118,-1.6136,-1.6131,-1.6143,-1.6142,-1.6144,-1.6074,-1.6064,-1.6147,-1.6147,-1.6147,-1.6147,-1.6147,-1.6147,-1.594,-1.5979,-1.5977,-1.6021,-1.6027,-1.6057,-1.6067,-1.608,-1.6089,-1.6124,-1.6144,-1.6146,-1.6155,-1.6178,-1.62,-1.62,-1.621,-1.6224,-1.6222,-1.6158,-1.6149,-1.614,-1.6131,-1.6226,-1.6226,-1.629,-1.6291,-1.6291]},{"header":{"parameterUnit":"m.s-1","parameterCategory":1,"la1":30.2991,"la2":30.254,"lo1":-89.0895,"lo2":-89.0444,"dy":0.0017,"dx":0.0017,"nx":28,"ny":28,"refTime":"2025-12-14T03:00:00:Z","depth":0,"parameterNumber":3,"parameterNumberName":"V-component_of_WINDS"},"data":[0,0,0,0,0,0,0,0,0,0,0,0,0,0,0,0,0,0,0,0,0,0,0,0,0,0,0,0,0,0,0,0,0,0,0,0,0,0,0,0,0,0,0,0,0,0,0,0,0,0,0,0,0,0,0,0,0,0,-8.9958,-8.9959,0,-9.0061,-9.0062,-9.0063,-8.9989,-8.9986,-8.9983,-8.998,-9.0079,-9.0084,-9.009,0,0,0,0,0,0,0,0,0,0,0,0,0,-8.969,-8.9695,-8.9958,-8.9959,-8.996,-9.0061,-9.0062,-9.0064,-8.999,-8.9986,-8.9982,-8.9978,-9.0077,-9.0083,-9.009,0,0,0,0,0,0,0,0,0,0,0,0,0,-8.9801,-8.9697,-8.9957,-8.9936,-8.9935,-9.0061,-9.0062,-9.0064,-8.9991,-8.9986,-8.9981,-8.9976,-9.0075,-9.0083,-9.0091,-9.0242,0,0,-9.0117,-9.0121,0,0,0,0,0,0,0,0,-8.9795,-8.9811,-8.9938,-8.9937,-8.9937,-9.0007,-9.0004,-9.0123,-8.9992,-8.9969,-8.9979,-8.9974,-9.0058,-9.0068,-9.0098,-9.0247,-9.0251,-9.0118,-9.0123,-9.0127,-9.0129,0,0,0,0,0,0,0,-8.9787,-8.9806,-8.9998,-8.9939,-8.9939,-8.9919,-8.9929,-9.0026,-9.004,-8.9971,-8.9966,-8.9979,-9.0057,-9.009,-9.01,-9.0252,-9.0118,-9.0125,-9.0131,-9.0134,-9.053,-9.0536,0,0,0,0,0,0,-8.9782,-8.98,-8.9995,-9.0001,-8.9852,-8.9928,-8.9939,-8.9989,-9.0039,-9.0042,-8.9983,-8.9975,-9.0078,-9.009,-9.0103,-9.0283,-9.0127,-9.0135,-9.014,-9.0525,-9.0532,-9.0537,0,0,0,0,0,0,-8.9777,-8.98,-8.9991,-8.9899,-8.9922,-8.9937,-8.9995,-8.9994,-9.0027,-9.0048,-9.005,-9.0015,-9.0074,-9.0091,-9.0209,-9.0286,-9.0139,-9.0146,-9.0519,-9.0527,-9.0535,-9.0645,0,0,0,0,0,0,-8.9769,-8.9799,-8.9858,-8.9901,-8.9927,-9.0097,-8.9999,-9.0,-9.0043,-9.0033,-9.0078,-9.0081,-9.0072,-9.0196,-9.0217,-9.0295,-9.0153,-9.0512,-9.0522,-9.0532,-9.0635,-9.0656,-9.0675,0,0,0,0,0,-8.976,-8.9883,-8.9861,-8.9885,-9.0002,-9.0102,-9.0116,-9.0105,-9.0049,-9.0108,-9.0121,-9.0079,-9.0274,-9.0209,-9.0232,-9.0313,-9.0507,-9.0519,-9.0531,-9.0626,-9.0652,-9.0674,0,0,0,0,0,0,-8.9845,-8.9888,-8.9864,-9.0006,-9.0051,-9.0089,-9.0162,-9.0133,-9.0193,-9.0182,-9.0164,-9.0174,-9.0298,-9.0317,-9.0244,-9.0462,-9.0381,-9.0399,-9.0445,-9.047,-9.049,-9.0483,-9.016,0,0,0,0,0,-8.9881,-8.9961,-8.9993,-9.0114,-9.0139,-9.0147,-9.019,-9.0178,-9.0223,-9.0241,-9.0263,-9.0307,-9.0378,-9.0425,-9.0491,-9.0637,-9.0646,-9.0704,-9.0724,-9.074,-9.0755,-9.0834,-9.0861,-9.0578,-9.0577,-9.0577,0,0,-8.9954,-8.9988,-9.0039,-9.0132,-9.0166,-9.0248,-9.0163,-9.0253,-9.0312,-9.0254,-9.0368,-9.0386,-9.0433,-9.0566,-9.0625,-9.0585,-9.0836,-9.0756,-9.0769,-9.0775,-9.085,-9.0876,-9.09,-9.0586,-9.0584,-9.0583,0,0,-9.013,-9.0164,-9.0269,-9.0306,-9.0359,-9.0364,-9.0389,-9.0432,-9.0443,-9.0557,-9.0515,-9.0585,-9.0707,-9.0743,-9.0777,-9.0969,-9.0932,-9.0991,-9.1094,-9.1171,-9.1194,-9.1213,-9.1282,-9.1307,-9.1005,-9.1006,-9.1006,0,-9.0214,-9.0338,-9.0326,-9.042,-9.0462,-9.0416,-9.0522,-9.0556,-9.0628,-9.0657,-9.0612,-9.0766,-9.0794,-9.0935,-9.0982,-9.1011,-9.1038,-9.0985,-9.1192,-9.1211,-9.123,-9.1295,-9.132,-9.1013,-9.1012,-9.1011,-9.101,0,-9.0439,-9.0525,-9.0603,-9.0677,-9.0727,-9.0826,-9.0829,-9.0881,-9.0865,-9.0874,-9.0991,-9.1024,-9.1096,-9.1129,-9.1112,-9.1268,-9.1241,-9.1195,-9.1113,-9.1264,-9.1325,-9.1349,-9.1022,-9.102,-9.1018,-9.1016,0,0,-9.067,-9.0738,-9.0767,-9.08,-9.0856,-9.0921,-9.1018,-9.1092,-9.1137,-9.1187,-9.1267,-9.1373,-9.1331,-9.137,-9.1357,-9.1425,-9.1575,-9.1369,-9.137,-9.1407,-9.1748,-9.1783,-9.1813,-9.1551,-9.1556,-9.1559,-9.1744,0,-9.085,-9.1022,-9.1015,-9.1174,-9.1253,-9.1211,-9.1295,-9.1337,-9.1349,-9.1416,-9.1427,-9.1503,-9.144,-9.1464,-9.1529,-9.1543,-9.1643,-9.1529,-9.1624,-9.1627,-9.1614,-9.1844,-9.1882,-9.2055,-9.1768,-9.1772,-9.1775,0,-9.1082,-9.1144,-9.1313,-9.1358,-9.1391,-9.1467,-9.1535,-9.16,-9.1647,-9.165,-9.1695,-9.1672,-9.1767,-9.1684,-9.1815,-9.1738,-9.1776,-9.1789,-9.1795,-9.1804,-9.171,-9.1859,-9.2109,-9.2135,-9.1812,-9.1809,-9.1806,0,-9.1235,-9.136,-9.1478,-9.1507,-9.1563,-9.1618,-9.1643,-9.1685,-9.173,-9.1788,-9.1817,-9.1885,-9.1922,-9.1974,-9.1969,-9.1908,-9.2103,-9.2018,-9.2107,-9.2107,-9.215,-9.2147,-9.241,-9.2174,-9.2174,-9.2173,-9.2173,0,-9.1437,-9.1541,-9.1548,-9.162,-9.1735,-9.1726,-9.184,-9.1859,-9.1897,-9.1971,-9.1937,-9.2006,-9.1995,-9.2064,-9.2061,-9.217,-9.2187,-9.2191,-9.2189,-9.2195,-9.2195,-9.222,-9.2208,-9.218,-9.2179,-9.2177,-9.2176,0,-9.1627,-9.1636,-9.1761,-9.1805,-9.1818,-9.1901,-9.1937,-9.2005,-9.2014,-9.2108,-9.2129,-9.2142,-9.2222,-9.2222,-9.2312,-9.2309,-9.2444,-9.2428,-9.243,-9.2426,-9.2515,-9.2507,-9.2804,-9.2842,-9.2581,-9.2584,-9.2586,0,-9.1755,-9.1836,-9.1889,-9.1937,-9.1967,-9.2045,-9.2092,-9.2085,-9.2134,-9.2195,-9.2255,-9.2332,-9.2393,-9.2522,-9.2538,-9.2607,-9.2592,-9.2692,-9.2602,-9.2606,-9.2594,-9.259,-9.2598,-9.2709,-9.2712,-9.2714,-9.2716,0,-9.1982,-9.1983,-9.2053,-9.2126,-9.2184,-9.224,-9.2291,-9.2332,-9.2331,-9.2388,-9.2471,-9.2519,-9.2612,-9.2689,-9.2756,-9.2779,-9.2748,-9.2744,-9.2769,-9.2775,-9.2773,-9.2776,-9.2478,-9.2738,-9.2735,-9.2734,-9.2733,-9.2732,-9.2146,-9.2216,-9.2265,-9.2344,-9.2383,-9.2433,-9.2499,-9.2518,-9.2587,-9.2665,-9.2656,-9.2748,-9.2792,-9.2879,-9.2908,-9.2979,-9.2944,-9.2979,-9.2988,-9.2997,-9.3007,-9.2762,-9.2991,-9.299,-9.2989,-9.2989,-9.2988,0,-9.2371,-9.2402,-9.2475,-9.255,-9.2613,-9.2581,-9.2636,-9.269,-9.2773,-9.2818,-9.288,-9.2975,-9.3049,-9.3072,-9.3144,-9.3196,-9.3183,-9.3215,-9.3211,-9.3217,-9.3034,-9.3006,-9.3224,-9.3224,-9.3224,-9.3224,-9.3224,-9.3224,-9.2496,-9.2613,-9.262,-9.2755,-9.2783,-9.2876,-9.2911,-9.2956,-9.2992,-9.3101,-9.3164,-9.3179,-9.3215,-9.329,-9.3356,-9.336,-9.3388,-9.3426,-9.3425,-9.3253,-9.323,-9.3207,-9.3181,-9.3432,-9.3433,-9.3602,-9.3604,-9.3605]}]]